Theta_e
350 354 354 355 356 360 361 360 361 362 365 366 367 366 368 367 367 364 365 367 365 365 364 364 362 362 364 362 356 357 357 358 358 361 362 362 364 365 365 363 363 362 362 356 351 350 353 358 357 357 359 351 349 347 349 360 360 360 357 355 351 344 344 348 351 351 348 349 351 351 353 357 355 354 355 355 353 352 353 353 354 353 355 356 359
353 354 354 355 354 356 359 360 361 361 364 366 366 367 368 368 366 365 364 365 365 364 363 363 366 362 360 359 358 356 358 358 356 359 358 358 361 362 362 361 361 360 358 360 360 357 356 354 360 353 353 351 356 359 353 357 360 359 357 355 357 349 344 350 352 354 349 344 344 346 348 351 353 352 351 352 352 352 351 352 353 352 351 352 355
351 351 353 353 354 355 357 358 359 360 363 365 366 367 367 364 363 363 362 363 364 367 368 364 364 363 361 359 357 355 358 358 356 356 358 357 358 359 363 362 360 360 361 361 360 361 360 359 359 359 359 359 359 360 361 361 360 357 356 352 352 354 352 354 356 354 344 345 346 344 336 339 346 349 350 350 350 350 349 348 350 351 352 354 355
349 351 349 351 354 356 357 357 359 359 362 362 362 361 361 361 361 361 361 362 364 365 364 364 363 362 361 361 360 358 356 358 360 358 355 354 352 353 354 356 357 357 357 359 357 359 357 356 356 358 358 360 359 358 360 359 358 357 355 354 352 342 347 348 355 356 351 344 332 336 336 338 333 336 346 352 351 349 347 346 349 348 352 356 355
349 350 350 352 355 355 357 358 358 358 358 358 359 359 360 360 362 362 361 361 361 363 362 361 361 360 360 361 359 357 357 355 352 349 349 348 347 347 347 352 354 355 355 355 355 355 356 356 357 358 358 360 361 358 356 356 357 356 352 352 348 347 342 344 350 353 349 348 342 338 334 335 334 338 339 344 349 350 348 345 348 349 350 353 354
352 352 352 353 354 356 358 359 357 356 356 358 358 359 360 359 361 362 359 359 359 360 360 358 356 352 352 349 348 347 345 344 343 342 339 340 339 345 350 353 354 354 353 355 354 354 354 354 354 355 355 355 357 358 356 355 354 353 353 348 350 347 348 344 345 350 345 344 343 345 345 339 338 342 341 335 352 347 351 350 349 347 351 351 354
352 351 352 351 354 356 357 358 357 355 357 359 359 360 361 360 360 358 355 355 357 359 358 357 354 351 350 346 343 341 338 342 346 346 346 347 348 348 350 352 353 351 351 352 353 353 353 353 353 352 353 353 354 356 355 355 354 353 353 352 351 348 349 337 339 346 345 342 344 346 348 352 347 342 336 337 335 342 349 350 347 348 348 351 353
349 351 352 352 355 354 355 358 357 354 359 359 357 357 357 357 358 356 354 355 358 359 358 355 350 348 346 345 344 342 341 341 344 346 348 349 347 348 348 348 351 350 349 351 352 351 352 352 352 351 351 354 352 353 354 354 354 355 356 353 350 350 339 337 339 340 343 340 343 344 347 350 351 349 343 336 335 333 339 345 348 349 353 347 350
349 348 350 351 353 354 356 357 358 358 357 354 354 354 354 355 357 356 353 354 354 354 352 350 348 346 346 344 343 345 344 344 344 345 345 347 346 346 346 347 348 349 350 349 349 350 350 350 351 353 353 351 351 351 351 352 352 350 350 349 348 348 347 345 342 340 340 342 344 344 341 343 348 346 344 336 335 334 335 337 341 346 349 353 351
349 348 350 351 353 353 356 358 358 353 352 353 351 352 352 353 353 352 351 350 351 351 350 349 348 347 348 347 344 342 346 346 344 343 345 345 345 345 346 346 346 345 348 348 349 350 351 352 352 351 350 350 351 351 351 350 351 351 351 351 349 345 346 345 344 342 341 347 345 343 341 339 340 341 337 341 344 344 335 337 340 340 341 347 349
349 348 350 352 353 354 356 355 352 350 350 351 349 349 349 351 351 350 350 349 351 351 351 350 350 349 346 344 345 345 346 346 345 345 345 345 344 345 344 345 346 346 346 348 347 348 350 351 349 351 352 350 351 352 350 349 347 348 351 353 351 348 346 345 344 345 346 342 343 339 339 337 340 337 338 338 342 339 338 336 337 340 341 342 348
349 348 349 351 352 353 352 349 348 349 349 348 347 347 348 350 350 349 348 348 350 350 350 349 349 349 347 346 344 344 344 343 343 342 343 343 343 341 342 342 343 345 346 345 345 344 347 349 351 351 350 350 349 349 350 350 349 348 348 349 351 351 350 347 344 342 342 344 344 340 339 343 340 333 338 342 343 343 339 336 339 342 342 344 345
348 348 349 350 348 347 346 346 348 348 347 347 346 345 348 350 349 346 346 349 350 350 349 347 347 346 345 344 344 346 344 344 344 342 343 342 342 341 341 341 342 342 342 343 343 344 345 347 350 348 348 350 351 350 350 349 348 347 346 346 347 348 349 349 346 347 346 342 338 341 342 344 342 340 339 340 344 344 338 338 340 340 338 341 344
347 347 348 349 348 345 344 346 347 348 348 348 348 347 348 348 347 346 348 350 349 347 345 345 345 344 346 345 344 344 343 343 343 342 343 343 343 343 342 340 340 341 342 342 342 344 344 346 349 349 349 350 349 349 349 349 349 347 346 345 341 344 346 348 348 348 348 349 348 346 342 338 340 344 344 345 344 344 343 341 340 341 338 336 342
347 348 347 347 348 344 341 344 346 347 347 348 349 349 349 346 345 347 348 348 347 346 344 344 344 345 346 344 344 344 342 341 341 343 344 343 343 343 343 342 341 342 342 344 345 344 344 347 348 347 347 347 348 348 347 346 347 347 347 346 345 346 347 347 347 346 345 347 347 347 345 348 345 347 346 344 346 346 346 344 340 332 333 335 333
345 347 347 348 347 343 341 344 344 346 348 348 351 350 347 346 346 347 348 347 346 344 344 344 344 345 343 342 342 343 343 343 343 344 344 344 344 343 343 343 343 342 343 343 343 344 344 344 346 347 348 347 347 347 347 345 345 345 343 344 344 344 343 344 346 344 344 346 344 348 346 345 346 348 349 345 346 349 347 346 343 336 331 328 331
345 346 347 348 344 343 343 344 343 344 346 347 351 350 348 347 346 347 347 347 345 345 345 345 345 343 343 343 342 342 341 340 338 340 340 342 344 343 341 342 343 343 342 343 343 344 344 343 343 344 346 347 345 345 345 345 346 344 343 343 343 343 343 342 343 343 345 345 346 343 344 343 347 349 348 341 342 346 347 346 344 337 337 332 326
347 349 350 349 344 342 341 342 343 344 346 348 351 350 348 348 348 346 346 345 345 345 345 345 344 343 344 344 343 343 341 340 340 340 341 341 342 343 342 341 341 341 342 343 343 343 343 343 343 344 344 347 347 346 345 345 345 343 343 343 343 344 342 341 343 342 340 341 344 346 343 342 343 347 342 340 340 340 345 344 344 341 340 334 331
345 346 348 348 343 340 340 340 342 345 348 350 349 347 348 348 347 345 345 345 346 346 347 347 345 344 344 343 343 342 342 342 341 343 343 342 341 341 341 341 341 342 342 343 343 342 342 342 344 345 343 343 344 344 344 344 344 342 341 340 341 342 340 340 340 341 339 338 337 337 341 341 345 345 347 347 347 344 346 345 345 344 342 342 337
344 346 348 347 342 340 339 339 340 345 347 346 344 344 343 345 347 345 345 347 347 347 347 345 347 346 344 344 343 343 343 342 342 342 341 340 340 340 340 340 341 341 340 342 342 342 342 342 340 339 340 340 342 342 343 343 343 343 342 340 340 341 339 338 338 339 340 341 341 337 335 334 338 344 342 342 344 346 348 346 345 344 343 341 342
344 345 347 347 343 338 338 340 341 346 347 342 340 340 338 340 343 343 344 345 345 346 346 346 346 346 345 343 342 342 342 341 342 342 341 340 341 341 340 341 343 342 342 341 341 342 343 343 342 342 342 343 342 343 344 343 342 341 341 341 341 340 339 339 338 337 338 338 338 339 340 338 337 334 341 339 340 342 342 344 342 342 340 339 340
345 345 345 345 343 339 339 340 342 343 340 336 337 337 336 338 339 340 340 341 341 345 346 346 346 345 343 342 341 341 340 340 340 340 340 340 340 339 340 342 340 341 342 341 342 343 343 343 343 342 343 344 344 343 342 343 342 341 341 340 339 339 339 338 337 337 337 337 338 336 335 338 340 335 337 338 339 342 342 342 341 337 339 339 342
344 344 344 344 344 341 340 342 343 344 341 339 339 337 337 338 338 338 338 338 336 338 345 347 345 344 342 342 342 340 339 340 339 338 336 336 336 338 339 339 338 338 340 341 340 342 343 345 344 344 344 344 342 341 342 342 342 342 341 340 339 338 337 336 335 336 337 337 336 335 334 335 337 336 335 335 338 343 340 339 342 343 345 343 344
346 344 343 344 344 343 343 344 345 344 343 342 342 340 338 337 336 336 336 336 337 336 338 344 345 342 341 341 341 340 339 337 333 335 335 335 334 336 337 337 337 337 337 340 341 343 343 344 343 344 345 344 341 340 339 340 340 341 340 338 337 337 336 335 334 334 335 335 335 334 335 336 336 336 335 338 340 342 344 342 342 344 342 340 339
345 344 344 345 343 343 345 346 346 346 345 345 344 341 339 340 338 335 334 334 337 340 339 340 341 338 338 340 340 339 337 336 335 332 333 332 331 332 334 335 336 336 337 338 339 341 342 343 342 343 343 344 342 340 340 340 341 342 340 337 336 335 334 332 333 335 331 335 334 333 332 333 333 333 335 334 338 341 343 343 338 338 337 337 340
346 345 345 344 345 347 347 347 346 345 345 346 345 344 341 340 340 338 335 336 337 339 337 338 336 335 337 338 339 338 336 335 334 333 333 334 334 335 334 333 333 332 334 334 336 338 341 342 343 342 344 345 344 343 342 341 341 341 339 337 335 334 330 331 332 333 333 334 332 332 332 332 331 330 333 334 335 339 342 342 339 338 337 338 338
344 345 345 346 347 346 347 346 345 344 345 346 344 342 340 341 342 339 338 338 341 341 342 339 336 333 336 338 337 337 336 334 335 335 336 333 332 332 331 331 332 332 331 333 335 338 341 344 344 344 343 343 343 342 341 342 342 341 338 337 335 334 331 331 332 331 332 333 332 331 331 331 331 331 331 335 333 335 340 342 341 338 339 337 336
344 345 345 345 346 346 345 345 344 343 345 344 343 341 341 341 342 340 339 339 339 342 342 340 338 336 337 337 337 336 336 337 336 337 337 336 335 335 335 335 335 333 330 332 333 336 337 338 339 340 341 342 345 344 343 342 343 340 337 336 336 334 332 332 331 331 331 331 331 329 327 327 327 328 330 332 335 336 341 342 339 337 339 335 333
342 344 345 345 344 345 344 344 343 344 344 343 342 342 342 345 343 343 339 339 342 343 342 339 338 338 338 339 337 337 337 337 337 336 335 335 335 335 334 335 334 334 334 334 336 334 335 336 338 340 342 342 344 345 343 341 338 337 338 336 335 333 332 331 331 331 331 330 328 326 325 325 326 320 318 319 321 322 331 334 341 343 339 335 337
341 343 344 345 345 345 344 345 345 343 343 342 343 344 343 343 343 340 341 341 343 344 343 340 337 337 338 338 337 338 338 337 336 335 335 335 333 333 332 332 332 332 334 335 336 337 335 334 335 339 341 342 343 345 338 332 332 335 335 335 335 334 332 331 332 331 328 326 325 324 325 321 318 318 320 319 317 318 317 326 337 338 339 340 343
340 343 343 344 344 345 344 343 343 342 343 342 344 344 344 340 338 335 340 342 343 344 343 340 338 337 337 337 337 337 337 336 336 335 335 334 333 332 332 332 333 335 335 336 335 334 334 335 336 337 338 338 340 343 332 327 327 327 333 335 335 334 334 333 332 329 327 325 324 324 326 324 324 322 325 320 318 316 318 317 317 320 326 335 337
339 341 343 343 343 343 343 343 342 342 343 344 344 344 344 343 337 337 338 342 343 342 341 340 338 337 336 337 337 337 336 335 335 335 335 334 333 332 332 333 333 333 333 334 333 334 335 337 338 337 336 336 337 334 326 326 327 326 328 335 335 334 334 333 331 328 327 325 325 325 326 326 326 326 325 328 324 318 316 315 316 317 318 319 322
339 341 342 342 341 343 343 341 340 340 343 345 347 345 344 344 341 341 343 342 342 340 340 339 338 336 336 337 338 337 336 335 335 335 335 334 333 331 331 331 331 332 333 333 333 333 335 337 336 335 334 334 334 332 324 324 325 324 324 328 335 336 334 333 332 329 328 326 325 324 324 325 325 321 325 326 324 323 317 315 315 314 315 317 321
339 341 341 342 342 342 342 341 342 343 342 345 346 346 346 345 341 343 344 344 341 340 339 338 338 337 337 337 337 337 336 335 335 335 335 334 331 330 331 331 332 333 333 332 333 333 333 335 334 333 334 335 334 331 324 323 322 321 321 324 335 336 335 333 332 329 328 327 326 325 325 324 325 325 325 324 322 321 321 323 325 328 332 329 318
339 340 341 343 343 343 343 342 342 341 342 343 345 348 347 343 342 341 345 344 342 340 339 339 338 338 338 337 337 337 336 336 336 335 334 333 331 331 331 331 331 331 331 331 331 332 333 333 332 331 331 331 332 326 323 321 320 317 317 320 335 336 334 332 332 331 330 328 326 326 326 325 325 324 324 321 320 319 319 321 324 326 329 334 338
339 341 342 344 343 344 343 344 344 344 343 343 346 346 341 339 342 342 344 343 341 339 338 339 338 338 338 338 338 337 337 337 336 336 333 331 331 331 331 332 333 331 331 330 330 330 330 330 331 331 330 331 331 325 322 320 317 315 316 332 336 335 335 333 332 331 331 330 330 328 326 325 325 325 318 314 314 316 318 320 322 326 329 332 336
341 342 344 347 347 346 345 348 347 347 346 344 343 344 342 338 339 340 342 341 338 337 337 338 338 338 338 338 338 337 338 337 337 334 332 330 330 330 330 333 332 331 328 327 329 328 331 330 330 331 332 333 333 327 317 315 315 314 317 334 336 335 335 335 332 331 331 331 331 330 328 328 326 325 319 314 313 310 319 320 321 322 324 329 334
341 345 346 349 348 348 349 347 347 348 347 345 344 344 344 341 339 340 339 338 336 335 337 338 339 340 339 339 338 339 338 337 337 334 332 330 329 331 330 333 331 330 328 328 329 329 331 331 330 331 330 330 329 325 312 311 312 314 319 334 335 334 334 334 333 332 332 332 331 328 328 327 327 326 318 313 312 313 317 318 319 321 321 322 328
343 343 345 347 348 349 349 350 349 347 348 349 348 345 344 343 340 337 337 335 335 337 337 338 340 341 340 339 338 339 338 337 336 333 332 331 330 331 331 332 332 331 330 331 330 329 329 330 328 329 333 331 331 326 315 312 310 313 323 336 336 335 332 333 334 331 333 333 332 331 327 325 322 320 312 312 311 310 317 318 318 320 320 320 323
345 345 347 349 351 350 348 346 346 347 350 350 348 345 343 340 336 335 335 335 337 339 340 341 340 340 340 340 339 339 339 338 336 335 334 333 333 332 331 330 330 329 328 328 328 329 328 328 328 329 330 331 331 331 327 311 312 312 313 331 333 332 331 331 333 331 329 331 332 333 329 319 315 312 310 309 308 307 313 317 320 320 317 318 322
339 341 345 347 349 348 345 345 346 349 350 348 346 344 342 342 340 337 336 336 339 342 341 343 344 340 339 339 338 338 338 338 337 335 334 334 333 331 330 330 327 328 329 328 329 329 329 329 328 329 330 331 331 330 330 316 315 312 314 316 332 333 332 332 330 329 329 329 332 332 333 322 314 311 309 307 305 305 307 316 321 319 318 317 316
340 343 342 343 342 345 346 345 349 351 348 346 345 344 343 343 340 337 339 340 342 343 345 346 345 341 338 337 337 338 339 337 338 338 337 336 334 333 331 330 328 328 330 330 330 330 329 329 329 329 331 333 335 332 331 321 312 309 307 308 323 331 330 327 326 328 329 330 331 332 333 324 315 311 307 304 303 305 308 317 323 309 307 313 322
339 341 342 339 341 340 341 342 341 343 345 344 344 343 342 342 340 341 341 342 344 345 346 346 344 340 339 338 338 339 339 337 337 338 338 335 334 333 333 333 332 332 330 329 329 329 329 327 328 328 330 331 335 337 325 330 315 311 306 307 306 312 314 322 326 327 329 330 332 333 332 319 312 306 303 303 304 306 309 320 308 307 311 315 321
335 335 339 337 341 342 341 342 339 342 343 343 342 341 341 340 341 344 345 344 346 346 346 344 343 340 338 338 337 338 338 339 339 339 338 336 333 331 331 332 333 330 328 327 328 328 328 327 327 326 329 329 334 335 325 321 325 315 310 306 306 306 307 320 325 325 329 330 331 332 326 311 304 301 302 305 307 309 319 309 307 310 314 318 327
337 333 338 338 337 339 342 343 343 343 343 342 341 339 339 339 342 345 346 345 345 344 343 342 340 339 338 337 337 337 337 336 337 338 337 334 332 331 329 331 332 329 328 328 328 328 328 327 326 326 327 327 330 332 334 329 322 321 314 310 309 309 309 309 324 327 330 330 321 310 306 305 306 305 306 311 316 317 314 312 312 313 318 325 324
339 339 340 337 336 337 337 339 342 344 343 342 342 340 339 341 344 345 348 345 343 343 341 340 339 337 337 337 336 336 335 334 334 334 334 333 330 328 327 329 329 328 329 328 328 326 326 327 325 325 325 326 329 332 334 330 325 322 318 314 311 312 314 314 316 323 317 314 312 310 309 311 314 320 330 330 329 328 318 317 319 321 328 324 323
338 342 341 338 337 334 335 336 337 343 342 340 341 340 341 343 345 347 346 345 343 341 339 338 337 336 337 337 336 332 330 331 335 334 332 331 329 328 328 327 327 327 327 326 326 327 326 325 324 324 325 326 328 329 328 325 324 323 323 322 323 324 318 318 324 328 323 325 324 322 326 318 316 315 319 322 324 326 328 329 330 330 330 328 325
340 340 338 337 337 337 336 337 337 340 341 339 337 339 341 342 341 340 338 341 340 339 337 336 335 334 334 335 335 331 331 329 330 332 328 328 328 328 327 329 328 328 327 326 327 327 325 324 323 323 324 324 324 325 323 317 316 317 317 319 321 322 324 323 323 324 323 321 322 320 324 336 337 332 332 332 332 332 332 330 329 329 329 329 328
342 341 340 339 339 337 337 336 336 339 338 337 336 335 335 338 337 336 337 338 337 336 335 334 335 335 333 334 332 332 332 331 328 331 332 328 329 334 332 330 324 323 324 326 327 325 324 323 323 324 322 322 323 321 317 305 306 301 303 308 315 316 316 317 314 307 313 319 326 325 325 324 326 325 327 329 329 329 329 328 328 328 329 328 327
337 336 337 337 336 336 334 335 337 337 335 335 334 335 334 332 334 335 337 337 337 335 334 331 331 331 330 329 329 328 329 329 328 328 330 323 310 301 312 327 320 309 304 300 304 319 316 320 323 323 320 316 315 314 302 296 295 294 294 294 295 294 295 302 303 302 306 317 325 322 323 323 323 323 324 324 325 328 327 327 328 322 327 327 326
333 334 335 335 336 335 335 335 335 335 334 333 333 333 334 332 335 336 336 336 337 333 330 328 329 328 328 329 327 326 327 330 329 333 330 326 321 315 298 298 305 305 300 296 295 296 298 302 312 320 315 303 305 300 296 294 294 294 293 292 292 293 296 296 297 314 328 326 321 321 320 321 320 320 319 319 321 322 323 325 325 325 326 325 324
Wind_Speed
7 6 6 6 7 6 6 6 6 6 6 7 7 7 6 5 5 5 4 4 4 4 4 4 4 4 4 4 5 6 7 6 7 7 7 7 8 8 8 7 7 7 6 9 10 11 11 10 10 8 7 8 9 11 14 13 10 10 10 10 11 10 9 9 14 12 12 9 10 11 11 12 12 12 12 12 12 10 10 10 9 9 9 9 9
7 7 7 7 7 8 7 6 6 7 7 7 7 6 5 4 4 3 3 4 4 5 4 3 3 3 4 4 4 4 4 5 5 5 5 4 4 5 6 6 7 7 7 7 7 9 9 9 9 8 10 12 12 10 12 11 11 10 10 9 10 10 10 14 14 8 7 11 9 9 10 10 11 12 14 14 14 13 12 11 10 11 12 11 9
7 7 7 7 8 7 6 6 6 6 6 6 5 5 4 4 3 3 3 4 4 3 3 3 2 2 3 4 5 5 4 5 5 5 6 6 6 6 6 6 7 7 7 7 7 7 8 8 8 8 9 9 8 10 10 11 10 11 10 11 9 9 9 10 11 9 8 9 10 8 11 10 9 10 12 14 14 13 13 13 13 13 13 12 10
8 8 8 8 7 7 6 6 6 5 5 5 5 5 3 3 3 3 3 3 3 2 2 2 2 3 2 3 4 4 5 5 5 6 6 8 8 7 7 6 6 7 8 8 8 9 9 10 9 8 9 8 8 8 8 9 9 9 9 10 10 9 11 11 11 10 9 3 3 8 10 10 10 10 11 10 12 13 14 15 13 12 12 12 11
8 8 8 8 8 8 7 6 6 6 6 5 5 5 3 4 4 4 3 3 2 3 2 1 1 2 2 2 3 4 4 4 5 5 5 5 7 6 5 6 6 8 8 8 9 9 9 9 8 8 8 8 7 7 7 7 7 9 11 9 12 11 11 11 9 10 10 7 6 5 11 10 12 10 8 8 6 8 14 18 13 13 12 11 11
8 9 9 9 9 8 8 8 7 6 6 5 5 6 6 5 5 5 4 3 3 3 2 1 1 2 2 3 3 3 4 4 5 6 7 7 8 8 8 6 7 7 7 8 9 9 10 9 9 8 8 7 7 7 7 7 8 9 9 9 10 11 10 9 11 4 7 8 11 12 12 11 6 6 6 6 4 6 8 8 9 12 12 12 10
8 8 9 10 10 9 9 8 8 7 6 6 7 7 7 7 6 6 5 4 4 4 4 2 2 2 2 3 4 4 5 5 4 5 5 5 6 7 6 7 7 8 8 8 9 9 9 9 9 9 8 7 7 7 7 7 7 8 8 8 8 9 5 1 8 10 4 8 10 15 16 14 10 5 8 7 9 7 5 7 10 11 11 11 11
9 9 10 9 10 10 10 9 8 8 8 8 7 7 8 7 7 7 5 5 5 5 5 3 3 2 2 2 3 3 4 5 6 5 5 5 6 7 7 7 7 7 8 8 8 9 9 9 9 9 8 7 7 7 7 7 7 7 8 9 9 4 5 8 11 11 9 8 11 12 16 15 11 9 13 11 8 6 8 7 9 9 12 11 11
10 10 11 11 11 10 10 10 9 9 9 8 8 8 7 7 7 6 6 5 5 5 5 4 3 2 2 1 3 3 3 4 4 4 4 5 6 6 7 7 7 7 7 8 8 8 7 8 8 6 6 7 6 7 7 7 8 8 7 7 8 8 8 10 11 11 11 10 7 7 9 12 9 9 11 11 12 8 13 13 11 10 9 10 12
11 11 11 11 11 10 10 10 10 9 9 8 8 8 8 7 7 7 6 5 5 5 5 5 4 3 3 2 3 3 3 3 4 4 5 5 6 6 6 6 6 6 6 6 7 7 7 6 5 6 7 7 6 7 7 7 7 8 9 8 7 8 7 9 9 8 9 6 7 6 7 5 9 7 9 11 9 9 13 12 10 10 9 7 8
11 11 11 11 11 10 10 11 10 10 9 9 9 9 8 7 7 7 7 5 5 6 5 5 4 3 2 2 2 3 3 4 4 4 4 5 5 6 6 6 6 6 6 6 6 6 5 6 6 6 6 6 6 7 6 6 7 7 7 8 8 9 8 8 10 10 7 8 7 8 6 9 9 9 8 11 11 9 10 12 13 13 10 10 9
12 12 12 12 11 11 11 11 11 11 10 11 9 9 8 7 7 7 6 6 6 5 5 4 4 3 1 1 2 3 4 4 5 6 5 6 6 6 6 6 6 6 6 6 6 7 6 5 5 5 5 6 6 6 7 7 7 7 6 6 7 8 9 8 8 9 13 10 9 8 10 10 5 8 10 12 11 9 7 9 11 10 9 9 9
13 13 12 12 12 12 13 12 12 12 11 11 10 9 8 8 8 7 7 7 6 5 4 3 2 1 1 1 2 2 3 4 4 5 4 5 5 6 6 6 6 6 6 7 7 7 6 6 5 5 5 5 6 6 6 7 7 7 7 8 8 9 8 9 9 10 10 9 8 11 10 10 7 11 11 13 12 9 11 13 12 11 8 7 10
13 13 13 13 12 12 13 13 12 11 11 11 10 9 8 7 8 8 8 7 6 5 4 3 2 1 1 1 2 2 3 3 4 4 4 4 4 5 6 6 6 6 7 7 7 8 7 7 6 6 5 5 6 5 6 6 6 6 7 5 8 10 10 11 10 11 10 12 10 8 6 8 12 12 10 10 11 10 9 10 9 7 7 10 8
13 13 14 14 13 14 13 13 12 11 12 11 10 9 8 8 8 9 8 8 6 5 3 3 2 2 1 1 1 2 3 3 4 3 4 4 5 5 5 5 5 5 6 6 7 7 7 6 6 6 6 5 5 5 5 6 6 7 6 7 6 7 8 9 8 11 12 12 13 11 10 9 8 9 9 10 10 10 9 9 7 8 10 12 13
14 14 14 15 14 14 12 12 12 11 12 10 11 9 9 9 9 9 8 7 6 4 4 3 3 2 2 2 2 2 3 3 3 3 3 4 5 6 6 5 5 5 6 6 7 7 7 7 6 6 6 5 5 5 5 5 5 6 7 7 8 7 9 10 9 10 13 14 14 13 10 10 10 11 9 8 10 9 9 9 7 5 9 11 13
14 14 14 15 14 13 12 13 12 12 12 11 11 10 10 9 8 8 7 6 5 5 4 4 3 3 3 3 3 3 4 4 4 5 5 5 5 5 6 6 6 5 6 6 6 7 7 7 6 5 5 5 6 6 5 5 5 6 7 7 8 8 9 10 10 10 11 12 12 14 12 11 11 10 7 6 9 10 10 9 7 8 8 11 12
15 14 14 15 14 15 13 12 13 13 12 11 11 9 8 8 8 8 7 7 6 5 5 4 4 4 4 4 3 3 4 4 4 5 5 5 6 6 6 6 6 6 5 6 6 7 7 7 6 6 6 6 6 6 6 6 5 6 7 7 8 8 9 9 10 11 12 11 11 11 12 12 13 11 10 14 13 14 13 12 10 9 10 14 13
14 15 14 14 14 14 13 13 13 12 11 10 10 9 9 8 8 7 7 7 6 5 5 4 4 3 3 3 4 4 4 4 4 5 5 5 6 6 6 6 6 6 6 6 7 7 7 7 6 6 6 6 6 6 6 6 7 7 7 7 8 8 9 10 10 10 9 9 12 13 13 12 13 14 13 12 13 14 13 12 13 11 12 12 14
15 15 14 14 15 15 15 13 13 12 11 10 11 10 11 9 8 7 7 6 6 6 5 5 5 4 4 4 4 4 4 4 5 5 5 5 5 6 6 6 6 6 6 6 7 7 7 8 7 7 8 7 7 7 6 7 7 7 7 7 7 8 9 10 10 10 9 10 10 10 12 13 14 10 12 14 13 13 12 12 13 13 12 14 13
15 15 15 15 15 15 14 13 12 11 11 10 10 10 9 8 9 9 9 8 8 7 6 5 4 4 5 5 5 4 5 5 5 5 6 5 5 5 5 5 6 6 6 7 7 7 8 7 8 8 7 7 7 7 6 6 6 7 7 8 8 8 9 9 10 12 11 11 12 12 12 11 13 16 13 12 12 11 12 12 12 14 14 14 15
15 15 15 15 15 15 14 13 11 11 12 11 10 9 9 9 8 8 9 8 8 7 6 5 4 4 5 5 5 5 5 5 6 6 6 6 5 5 5 5 6 6 6 7 7 7 7 7 8 8 7 7 7 7 6 6 6 7 8 6 7 8 9 11 11 12 12 11 11 12 14 15 13 15 15 14 16 13 13 13 15 15 15 13 13
16 16 15 15 15 14 13 13 13 12 11 10 9 9 8 8 8 7 7 7 7 6 5 5 5 5 5 5 5 5 5 6 6 6 7 6 7 5 4 6 7 7 6 7 7 8 8 7 8 8 7 7 6 7 6 6 6 7 8 8 8 9 9 10 12 13 13 13 15 14 16 15 11 12 14 16 18 15 16 15 15 13 13 14 13
14 14 14 14 14 14 12 13 12 11 10 11 9 8 7 7 7 7 7 7 6 5 5 6 5 5 6 6 6 5 6 7 7 6 7 7 7 6 5 5 6 7 8 7 8 8 8 7 8 8 8 7 7 6 6 6 7 7 8 9 9 9 9 11 12 13 14 14 16 16 16 16 17 16 16 14 14 16 14 11 14 12 13 15 14
15 16 16 16 16 15 13 12 12 11 10 10 9 9 8 7 7 7 6 6 5 5 5 5 5 6 6 6 6 6 6 6 7 7 7 7 7 7 7 8 7 8 8 8 8 8 8 8 7 8 8 8 8 7 7 7 6 6 7 8 9 8 9 11 12 13 14 15 16 17 17 17 17 17 17 16 13 17 14 12 13 13 16 16 12
14 15 16 17 15 13 12 12 10 10 10 9 9 9 8 8 8 7 6 5 5 5 5 5 6 5 5 6 6 6 7 7 7 6 7 7 7 8 8 8 7 8 8 8 8 7 7 9 8 8 8 9 8 8 8 7 7 7 7 8 8 8 10 11 12 13 15 15 16 17 18 18 18 18 16 16 17 18 17 14 15 15 17 15 16
15 15 13 13 13 14 13 12 11 11 10 9 9 9 8 8 8 8 5 5 5 5 5 5 6 6 5 6 6 6 6 6 6 6 6 7 8 9 9 9 9 10 10 9 9 9 9 8 9 8 9 9 9 9 8 7 6 7 7 7 7 9 10 10 11 13 14 15 15 16 18 18 18 18 19 16 16 19 15 16 14 16 15 15 15
13 14 16 16 14 14 14 13 13 12 10 9 9 9 9 8 9 7 7 7 5 6 6 6 6 6 6 6 6 6 6 6 6 6 7 7 8 8 8 8 9 10 10 10 10 9 9 8 9 8 8 9 9 8 8 7 6 6 7 7 7 9 10 11 12 12 13 14 15 16 17 18 18 18 18 19 17 16 14 12 11 14 14 17 18
14 15 15 15 15 15 15 14 12 12 11 11 9 9 8 8 8 7 7 7 6 6 6 6 6 6 6 6 6 6 6 6 6 7 7 7 7 8 8 9 9 9 9 10 10 10 9 9 8 8 8 8 8 7 6 5 5 6 6 7 7 8 10 10 11 12 13 14 13 13 14 16 18 20 25 24 23 20 14 12 12 10 10 15 15
15 15 15 15 16 15 15 14 13 13 12 11 9 9 10 10 9 8 8 7 6 7 7 7 7 6 6 6 6 6 6 6 7 7 7 8 8 8 8 9 10 10 9 9 9 9 10 9 9 8 8 7 6 6 2 3 4 5 6 6 7 8 9 10 10 11 13 14 14 11 14 21 20 21 21 20 20 19 17 15 14 13 14 15 15
13 14 15 15 15 15 15 15 14 13 12 11 10 10 10 11 10 9 8 7 7 7 8 7 7 6 6 6 6 6 6 7 7 6 7 8 8 7 8 9 9 9 9 9 9 9 9 9 9 8 7 7 6 5 7 7 7 6 6 7 8 8 9 9 9 11 13 14 13 13 12 15 16 16 18 19 13 15 20 21 20 20 19 16 13
14 14 14 15 16 16 16 15 14 13 13 11 10 10 10 10 9 8 7 7 8 8 8 7 7 6 6 6 6 6 7 7 7 7 7 7 7 8 8 9 8 9 8 8 9 9 9 8 7 8 8 7 8 1 10 8 8 6 6 6 7 8 8 8 8 12 12 12 12 13 12 10 10 12 15 13 13 15 15 16 19 22 21 23 22
13 14 15 16 16 16 16 15 14 13 12 13 12 11 11 10 9 8 7 7 8 8 8 7 7 7 7 6 6 7 7 7 7 7 7 6 6 8 8 8 8 8 8 8 9 9 8 8 8 9 8 8 9 2 10 8 8 7 7 7 7 8 8 8 9 10 11 11 11 12 13 11 10 15 13 13 14 15 15 16 17 18 22 24 22
12 13 14 14 13 12 13 15 14 13 14 12 12 11 10 10 9 9 8 8 8 8 7 8 7 7 7 7 7 7 7 8 7 7 7 6 7 7 7 7 7 7 7 8 8 9 8 8 8 9 8 8 9 1 9 8 8 8 7 8 8 9 8 8 9 11 10 10 10 12 12 13 12 12 13 15 18 18 18 16 14 13 13 18 22
10 11 12 13 13 13 13 13 13 14 12 11 11 10 10 9 9 9 9 8 8 8 8 8 7 7 7 7 8 8 8 8 7 7 7 7 7 7 7 6 6 7 7 7 8 8 8 8 8 9 9 9 7 2 9 9 9 8 8 8 8 8 7 7 7 9 11 11 11 11 13 13 14 12 12 12 14 17 17 15 16 16 14 15 18
9 12 13 13 14 14 14 14 12 11 11 11 11 11 11 11 10 10 9 9 8 8 9 8 8 7 8 7 8 8 7 7 7 7 7 7 7 7 7 6 6 6 6 7 7 7 8 9 9 9 9 9 8 5 9 9 8 8 7 7 7 8 8 8 8 9 10 10 9 9 10 12 14 12 13 14 13 14 15 16 15 16 15 14 16
9 11 12 12 13 13 13 12 10 10 11 11 11 10 11 10 11 10 10 9 9 9 9 9 8 8 8 7 7 7 7 7 7 7 7 7 7 7 7 6 6 7 7 7 7 7 7 8 9 9 9 8 9 3 9 9 9 7 6 7 8 8 8 8 9 8 10 10 9 9 11 11 12 14 14 13 16 14 15 16 15 15 14 15 13
9 9 9 10 10 10 10 10 11 11 11 10 10 10 9 10 10 10 10 10 10 10 9 9 9 8 7 7 7 8 8 8 7 8 7 7 7 6 6 6 6 7 7 7 7 7 7 8 9 9 8 9 10 5 9 8 9 8 7 7 8 8 9 9 8 7 7 8 9 13 12 12 12 12 15 16 15 15 13 16 15 14 16 15 14
9 10 10 11 10 10 10 9 9 10 11 10 9 10 10 10 11 11 11 11 10 10 10 10 9 8 7 7 7 8 8 8 8 8 7 7 7 6 6 5 6 6 7 6 6 7 8 8 9 10 5 6 8 6 7 9 9 7 6 6 8 8 9 8 7 8 7 7 7 8 10 11 12 12 16 17 16 14 11 13 13 14 15 15 13
7 7 7 8 8 8 8 9 10 12 9 9 9 9 11 10 11 12 12 12 11 10 9 9 8 7 6 6 7 7 8 8 8 8 7 7 6 7 7 6 6 7 6 6 7 8 9 9 9 9 9 7 7 8 1 7 4 6 7 6 7 7 8 8 7 8 9 9 9 8 8 10 12 14 14 17 17 15 11 11 12 13 14 15 15
8 8 7 7 7 8 10 11 9 7 6 8 8 9 10 10 10 11 13 13 10 9 8 7 7 7 7 7 7 7 8 8 8 8 7 7 6 6 6 6 7 6 6 6 7 8 9 9 9 9 9 7 6 7 3 7 4 0 3 6 6 6 7 7 8 9 10 10 9 8 7 9 12 14 14 16 18 17 15 11 11 13 14 17 17
5 8 7 6 7 7 8 9 6 5 6 7 8 9 9 9 10 12 13 11 9 8 8 7 7 7 7 7 7 6 6 7 7 8 8 7 7 7 6 6 6 6 6 6 7 8 8 8 9 9 8 7 1 4 5 7 7 4 3 6 5 5 6 7 8 9 9 9 9 9 8 10 13 14 15 15 16 16 17 10 11 16 20 19 17
8 7 7 6 6 7 7 7 6 7 6 7 8 9 9 9 10 13 11 10 8 9 9 8 7 7 7 7 7 7 6 6 7 8 9 8 7 7 6 6 5 5 5 7 7 7 8 8 8 7 8 7 4 2 4 0 6 3 2 3 6 7 9 7 7 8 8 9 8 9 9 11 13 15 15 15 15 16 13 10 16 17 18 19 16
7 6 5 6 4 4 4 4 4 4 5 6 7 8 9 10 12 11 10 10 10 9 8 7 7 7 8 7 7 6 6 6 7 8 8 9 8 7 6 5 4 5 5 6 6 7 7 8 8 8 7 7 4 6 5 3 3 1 4 5 6 8 8 6 7 7 7 8 8 8 9 15 16 15 14 14 14 14 11 15 16 17 17 15 12
5 4 4 3 4 4 4 4 4 5 6 7 7 9 10 12 11 9 9 10 9 9 8 8 7 7 8 8 6 6 5 5 7 8 9 8 8 7 6 5 5 5 5 5 6 7 7 7 8 8 8 7 6 6 3 5 3 2 5 4 8 10 11 8 7 7 7 7 9 13 15 16 15 14 12 13 10 11 15 17 17 15 13 10 12
5 4 3 3 3 5 6 6 7 7 7 7 8 9 11 11 9 8 9 9 9 9 8 7 7 7 8 7 7 6 6 5 8 8 9 8 8 8 7 5 5 5 5 5 6 7 7 7 7 7 7 7 7 4 5 6 8 7 7 5 10 10 10 10 10 10 13 15 16 14 14 13 11 8 6 5 5 8 13 15 15 14 10 10 11
4 4 3 2 3 4 5 6 7 6 6 7 8 8 8 7 7 7 7 7 8 7 7 6 7 7 7 7 6 6 5 6 7 9 9 8 8 8 7 5 6 6 5 5 6 7 6 7 7 7 7 7 7 5 6 8 8 8 7 8 8 7 8 9 8 6 7 7 10 11 8 9 9 11 10 6 5 6 7 8 8 9 9 9 9
4 4 2 1 1 3 4 4 4 3 3 4 5 6 6 7 7 8 7 7 6 6 7 7 8 7 6 6 6 5 5 5 7 8 9 8 8 8 7 6 5 4 5 5 5 5 5 6 6 6 7 7 6 6 7 10 11 10 9 7 7 7 7 7 8 8 9 10 10 11 9 5 2 4 5 5 5 6 6 6 7 8 9 9 11
5 5 3 2 2 3 3 3 3 2 2 3 4 5 5 6 6 6 4 5 6 7 6 7 6 6 6 5 5 5 6 6 8 9 2 8 6 4 3 6 8 6 5 4 4 4 3 5 6 5 5 5 6 6 8 10 11 12 10 8 6 6 7 8 8 10 11 10 9 7 7 7 6 6 6 6 6 7 7 7 8 8 8 9 9
5 4 4 4 3 2 2 1 1 1 1 2 2 3 4 5 5 4 4 5 5 5 6 7 7 7 7 7 7 6 5 5 6 7 6 8 14 15 11 4 6 9 11 12 10 5 5 5 4 3 4 5 6 7 11 13 13 12 10 10 11 11 11 11 14 15 9 7 8 7 7 8 8 7 8 8 9 7 7 8 7 8 9 9 8
4 4 4 3 2 1 1 1 0 1 2 3 3 3 3 4 1 2 4 5 5 5 5 7 6 8 6 4 5 6 5 5 5 6 5 6 6 9 14 14 11 8 7 8 9 7 8 9 7 5 6 6 3 7 10 12 12 10 9 9 9 10 12 12 9 6 5 3 7 7 8 8 8 8 8 9 9 9 9 8 8 9 8 10 9
Wind_Direction
150 163 172 179 180 181 193 188 191 186 184 183 191 195 194 200 198 214 219 228 244 241 237 239 242 252 256 256 269 271 271 273 274 267 259 260 265 263 261 266 255 259 239 202 243 282 284 281 273 279 261 266 266 257 263 250 234 230 238 228 222 233 244 242 247 250 246 250 242 243 247 243 243 240 240 239 238 237 236 232 233 237 235 228 229
153 169 181 184 191 184 187 188 189 186 186 190 193 191 190 189 217 234 241 241 250 255 263 262 265 275 281 281 280 277 275 261 273 279 287 290 282 273 273 270 272 274 269 264 234 223 236 258 254 257 265 256 244 234 249 253 249 245 239 241 228 224 235 232 239 234 243 245 260 248 242 242 241 238 235 237 240 238 235 234 234 232 230 231 229
183 187 183 192 186 187 188 194 193 199 186 188 185 175 169 189 208 227 234 243 241 241 245 257 259 252 267 281 281 288 273 282 290 299 295 287 287 284 282 283 284 279 277 268 261 256 254 256 261 264 257 258 259 257 257 253 249 249 244 250 247 227 235 245 234 201 232 235 253 278 257 257 236 233 239 239 237 237 240 236 231 229 232 234 232
186 189 188 188 182 187 191 193 190 190 172 175 179 183 184 203 207 201 215 226 228 223 248 249 266 297 288 294 300 300 314 316 288 280 281 284 284 282 272 278 286 288 288 284 278 276 275 273 274 271 273 277 281 282 272 267 259 254 252 248 244 254 241 240 231 211 226 161 248 231 261 252 255 245 231 227 232 234 244 245 229 231 232 230 230
190 189 187 179 180 186 186 189 184 181 182 172 180 170 174 164 162 163 165 165 168 155 190 230 219 235 250 250 263 282 273 274 284 288 294 298 291 288 322 329 317 308 304 296 293 290 287 283 278 274 272 276 280 277 275 272 266 258 251 238 240 244 252 249 237 199 199 201 197 237 241 238 248 256 241 231 202 238 238 238 229 230 233 226 228
193 187 184 180 179 175 178 180 185 180 177 166 165 155 159 149 146 153 139 139 136 141 144 182 222 283 265 281 285 281 291 299 308 318 316 319 318 328 323 324 319 310 305 302 299 298 294 288 282 275 271 275 278 281 282 280 273 269 266 264 259 249 249 252 256 217 256 237 227 226 255 271 261 274 276 250 204 272 264 252 245 234 224 227 233
193 190 184 180 175 174 178 180 184 181 165 153 146 145 147 147 154 154 151 145 145 155 166 184 205 237 263 289 302 307 301 299 304 308 310 311 314 314 315 318 320 316 317 317 313 307 300 295 289 283 279 275 277 277 275 271 266 268 271 266 255 250 238 289 247 243 205 243 238 238 241 247 256 254 253 280 256 249 269 288 263 238 232 227 226
183 185 182 179 175 176 177 173 180 175 155 150 152 151 152 156 159 159 157 157 158 161 175 186 199 210 233 254 277 287 298 306 307 302 301 299 304 310 320 315 317 318 313 313 312 310 303 299 294 291 293 289 280 276 276 275 276 277 279 269 272 247 209 230 249 249 239 235 228 237 244 244 242 238 239 254 277 259 250 239 263 301 295 256 233
186 183 181 178 173 173 170 171 171 155 155 159 156 156 158 160 162 160 157 160 160 167 172 176 184 195 213 268 267 270 284 291 294 293 304 310 307 313 314 318 317 317 315 314 319 316 311 307 310 308 292 289 289 285 277 274 270 270 269 274 270 262 241 230 241 251 250 245 230 250 274 259 243 234 252 242 247 258 257 251 253 252 258 284 280
192 187 181 178 173 176 171 165 155 159 160 158 159 160 162 162 165 165 156 164 165 171 175 170 172 179 197 220 266 283 280 293 298 305 297 311 309 313 316 314 315 311 306 311 317 326 328 321 312 305 302 297 292 288 289 282 275 272 271 265 264 261 258 263 256 263 259 246 245 248 229 247 260 257 258 250 234 231 254 254 253 249 242 243 258
191 187 182 180 176 170 162 162 162 159 160 162 165 166 166 168 167 170 163 165 176 178 179 173 177 187 197 227 258 281 293 284 298 305 317 319 322 324 321 323 314 314 316 315 318 322 325 317 320 319 311 304 294 295 294 293 285 277 272 267 256 253 255 251 257 261 268 265 237 249 254 235 239 236 228 243 241 233 237 252 254 251 254 251 237
188 187 181 176 170 168 165 164 164 164 165 170 170 169 171 174 174 172 169 177 183 179 181 176 182 182 193 250 305 321 318 317 318 322 329 328 327 324 324 316 317 316 315 316 317 328 331 319 315 308 306 310 305 307 304 303 301 299 288 278 274 267 264 262 255 252 254 254 243 230 235 246 231 269 254 250 240 227 216 249 247 250 246 256 251
187 186 181 176 173 171 174 169 170 170 171 174 174 174 175 178 180 180 182 186 186 184 182 177 191 181 301 321 317 326 314 308 308 309 319 313 315 311 313 311 316 311 317 318 324 322 324 318 312 307 301 299 305 306 301 295 297 296 288 284 282 276 269 262 260 255 253 245 253 235 232 240 238 233 243 253 252 237 234 241 244 248 251 254 260
189 185 186 182 180 177 175 174 176 174 174 174 175 181 176 182 184 192 187 187 182 181 180 192 191 221 216 300 320 301 300 299 298 305 313 310 306 302 306 311 312 310 319 322 321 324 317 315 305 308 304 292 292 294 293 293 291 284 280 266 275 287 282 265 258 263 261 260 255 257 246 239 238 241 237 238 242 240 228 230 247 254 253 256 244
186 186 188 184 182 177 175 175 177 176 177 178 178 182 179 185 188 196 181 183 182 180 188 202 213 210 228 295 287 289 292 295 300 300 298 298 300 298 295 300 301 314 312 318 318 312 315 311 308 302 298 293 294 296 297 291 287 291 285 283 271 256 256 269 263 266 269 263 264 259 256 248 251 250 240 240 239 238 231 231 232 250 256 248 248
185 186 186 183 179 176 175 174 177 177 177 181 180 182 187 190 191 195 188 180 182 187 199 217 220 221 242 263 266 271 277 285 282 274 278 279 287 290 292 289 293 299 305 308 311 312 313 313 306 302 302 302 304 296 296 302 301 296 292 286 285 290 283 273 264 253 259 265 266 263 262 262 245 233 219 230 238 234 233 236 230 226 255 265 259
184 185 185 179 176 179 178 175 176 178 177 181 180 184 190 190 191 191 186 182 188 198 210 213 220 233 241 251 264 270 279 288 298 308 307 305 292 289 290 295 295 293 300 306 306 306 305 308 309 307 301 299 302 300 300 299 300 298 299 299 297 296 290 287 282 279 264 262 263 263 260 254 251 236 224 227 247 239 230 229 223 221 225 250 265
182 186 184 178 177 179 181 179 180 179 178 178 178 184 191 195 194 191 191 195 195 205 213 212 220 235 246 252 257 271 286 291 293 300 305 304 303 299 295 288 293 304 304 303 303 302 304 302 299 299 302 297 300 302 301 303 303 301 304 301 300 298 296 289 283 279 283 281 269 262 263 262 252 241 235 235 229 239 235 226 220 214 220 234 246
182 186 183 180 178 180 185 183 182 176 174 173 178 186 191 193 195 202 202 204 205 209 211 215 225 239 248 254 260 271 275 284 292 291 293 295 306 311 308 305 299 298 297 298 301 305 304 303 298 293 300 303 301 304 306 308 312 307 306 302 304 307 304 298 294 295 297 284 284 285 272 266 268 263 251 238 231 229 228 227 229 221 220 222 239
182 185 184 181 179 181 183 184 184 173 175 177 185 192 194 189 190 199 204 204 207 210 214 224 222 232 238 242 249 253 262 270 275 276 283 293 301 308 309 306 303 302 300 299 297 302 307 306 305 308 308 311 311 309 310 311 306 307 308 308 311 309 304 302 302 299 290 289 284 269 281 285 277 274 270 260 249 239 226 228 232 233 231 229 225
184 185 184 182 181 184 185 185 183 173 175 185 189 195 197 189 190 202 203 209 211 215 218 224 229 229 236 241 247 245 256 266 262 262 270 279 287 293 297 303 304 298 299 302 299 299 299 296 302 304 306 311 310 310 308 304 302 301 305 305 307 307 307 306 306 304 299 295 290 284 272 262 264 269 262 265 259 242 238 230 230 231 227 233 231
184 186 184 184 182 184 184 184 180 177 184 188 189 193 193 198 202 205 212 211 221 204 216 226 227 240 245 247 246 252 262 266 265 264 267 270 275 281 291 293 295 299 297 301 303 302 297 295 292 295 295 300 303 304 301 301 298 302 305 309 310 309 308 308 309 304 304 299 292 288 284 279 274 267 266 253 250 243 244 243 235 232 233 231 235
185 183 183 182 182 183 181 177 175 180 183 181 185 195 194 198 212 215 218 224 234 219 198 215 233 240 245 244 243 251 258 261 265 268 269 276 278 287 295 296 301 306 304 300 300 299 297 289 285 282 286 288 296 301 302 299 301 302 306 312 312 310 309 310 308 306 303 302 299 296 291 286 275 266 261 258 255 246 246 251 252 240 239 239 233
186 182 181 181 178 178 171 167 172 177 177 177 183 194 197 208 217 218 222 226 239 246 220 209 224 238 244 243 243 251 263 271 272 274 275 283 292 287 285 287 297 301 305 301 295 293 290 287 283 281 276 278 284 290 296 297 302 306 307 307 308 309 309 308 307 306 304 302 299 296 293 292 289 279 271 263 258 247 235 229 239 241 241 238 237
180 180 181 181 177 172 168 168 170 175 180 179 184 188 192 204 220 230 236 233 224 227 236 238 241 249 240 241 246 253 260 262 270 278 288 291 303 317 318 309 302 299 300 296 291 289 284 281 281 282 281 277 282 288 285 291 298 304 304 306 307 308 307 307 304 302 302 301 301 300 298 296 293 290 278 265 249 248 240 234 235 235 238 239 237
180 179 180 181 176 166 164 167 168 178 182 179 182 186 191 204 217 228 231 236 233 232 238 238 249 247 247 246 247 257 264 270 276 282 287 301 302 290 287 290 303 303 303 297 294 289 287 281 276 277 275 274 275 276 279 284 295 302 305 305 305 307 307 308 308 305 305 308 308 306 302 296 292 287 281 277 266 253 247 236 232 233 234 231 231
181 181 180 176 170 168 163 165 173 180 184 181 182 188 194 202 218 222 225 230 226 231 236 247 251 260 253 251 253 256 264 273 275 278 287 291 294 302 307 310 308 306 304 303 305 301 294 286 281 277 276 277 275 274 273 275 281 294 301 299 301 307 309 309 309 305 306 310 313 313 308 303 299 294 287 281 270 262 251 242 232 237 229 232 234
183 183 183 182 174 165 167 173 177 183 181 181 184 188 194 205 214 216 219 222 220 219 229 233 242 249 249 248 253 258 261 265 274 283 285 288 294 294 291 291 294 296 299 305 305 302 297 292 289 285 284 281 276 269 266 265 275 288 298 299 303 309 312 312 311 306 309 317 318 317 315 310 304 302 297 290 282 267 257 247 245 244 230 227 235
188 188 187 183 177 173 171 174 177 181 183 182 185 188 195 207 216 214 222 223 216 215 221 232 235 239 243 247 253 258 258 264 271 278 288 295 296 294 290 288 290 292 296 298 301 305 303 295 289 285 283 282 278 272 265 265 277 292 296 301 304 308 311 312 311 310 317 321 320 314 310 311 308 300 291 281 280 282 287 273 245 238 248 242 230
192 191 189 185 180 172 170 172 176 182 184 183 185 189 198 207 210 209 217 222 212 213 222 228 234 235 239 243 248 251 255 264 272 281 292 295 293 293 295 294 293 293 294 295 301 300 297 296 294 293 290 286 281 272 216 163 260 288 298 297 301 302 305 311 312 315 319 323 322 310 311 309 302 300 306 294 269 269 270 270 269 266 257 243 229
196 192 191 186 179 171 170 174 175 181 183 190 190 196 204 213 212 216 212 214 210 213 218 223 228 232 236 241 244 247 253 261 271 284 294 294 289 292 295 296 294 293 295 296 291 295 298 301 300 298 297 292 289 273 156 201 216 234 267 286 297 297 304 308 310 318 320 319 314 310 304 307 308 315 327 326 323 287 274 265 258 253 252 257 257
194 191 188 183 180 174 174 175 176 182 187 190 194 199 202 210 213 218 218 204 208 214 218 220 224 227 231 237 242 247 253 263 272 288 291 288 288 293 298 298 297 295 294 298 299 298 297 297 295 293 295 300 296 211 170 202 226 226 243 279 293 295 299 302 307 318 319 316 310 309 307 303 311 318 318 325 339 338 330 306 277 258 247 243 242
194 190 188 185 180 177 177 176 179 185 189 195 195 198 203 203 208 212 214 214 209 213 215 221 222 226 231 235 241 247 257 265 274 289 289 286 287 294 297 296 295 298 298 295 297 295 297 297 295 295 296 302 309 146 186 205 225 232 227 249 282 290 292 296 302 310 313 309 305 307 312 316 315 320 322 333 339 335 325 316 298 274 256 248 244
197 192 189 184 181 179 179 178 182 189 196 198 199 201 202 200 205 205 209 213 215 219 219 219 219 224 229 237 241 250 258 266 274 281 282 280 286 291 297 299 295 293 294 297 300 303 302 299 299 297 295 295 302 233 194 203 222 228 236 243 278 285 284 290 295 304 301 299 298 304 306 312 316 321 327 333 339 335 329 318 310 296 278 248 237
194 190 187 181 180 178 177 179 190 197 198 197 197 201 198 197 201 205 204 208 213 219 218 220 220 222 228 235 243 248 258 265 269 271 272 277 282 286 297 299 303 305 303 305 307 305 304 298 298 299 300 304 301 183 194 207 222 230 228 242 270 276 283 287 293 293 292 294 299 299 303 303 315 321 325 334 333 330 324 318 312 305 285 269 248
193 187 184 178 178 179 178 185 192 194 199 199 199 199 203 203 200 205 203 206 210 216 221 220 221 223 228 234 242 250 255 258 258 260 267 276 280 291 297 298 294 299 303 301 302 308 311 311 307 305 304 300 304 175 200 206 221 228 241 260 272 288 296 298 301 298 294 291 289 288 295 301 310 313 319 325 323 321 320 319 316 319 306 275 260
188 186 182 178 180 181 187 186 188 193 197 203 205 201 204 205 204 205 206 207 211 217 222 222 223 224 229 235 244 253 253 253 255 257 264 274 283 288 291 294 293 295 301 305 310 312 316 311 311 306 300 301 305 251 193 208 217 211 226 268 282 292 292 295 301 303 300 295 289 289 295 296 300 308 308 315 318 324 325 325 322 322 317 303 271
178 178 175 174 181 189 189 194 193 199 205 208 205 200 195 199 206 208 208 209 213 218 221 226 225 225 228 237 246 248 248 249 250 254 260 268 272 281 286 286 290 297 298 308 309 308 310 315 308 300 307 315 309 287 184 201 217 214 245 275 289 292 295 296 294 287 291 288 283 276 282 295 297 299 305 312 317 327 325 325 319 317 321 316 302
171 172 172 177 182 188 187 189 199 208 208 205 202 201 197 198 205 216 219 218 217 217 221 224 224 224 227 237 243 244 244 244 246 250 255 266 274 280 283 281 282 286 288 287 299 307 312 308 309 315 300 275 297 304 171 197 207 218 230 272 287 298 302 300 295 294 290 291 280 284 281 282 288 293 301 310 320 327 320 318 315 312 317 313 305
159 170 170 168 168 172 186 199 206 218 212 199 197 202 209 210 214 217 224 224 219 213 217 225 229 226 227 229 233 237 238 243 245 247 255 263 265 271 279 285 286 285 295 312 312 311 312 309 311 310 315 313 305 302 338 165 184 210 228 271 288 289 294 304 302 297 304 298 301 299 292 289 291 296 306 313 319 321 316 310 310 317 317 309 310
167 156 154 164 177 191 201 210 216 217 201 196 198 203 211 209 209 216 227 228 216 209 214 219 222 230 228 225 229 232 235 238 242 248 253 258 262 271 273 273 279 292 304 303 308 309 310 312 311 315 308 315 324 310 15 93 73 56 265 246 278 282 293 301 301 303 300 300 302 307 302 296 297 304 313 317 316 317 314 308 301 315 310 297 297
150 141 167 178 195 201 216 219 209 191 187 189 196 206 214 211 207 218 225 226 215 204 202 206 215 227 229 227 229 233 231 244 245 241 243 247 255 258 259 260 277 293 293 296 304 307 308 306 306 307 310 307 334 155 310 93 80 58 3 306 288 294 310 298 296 292 296 298 303 306 307 303 307 311 317 314 310 311 311 302 299 303 299 314 324
160 162 177 192 201 215 223 233 220 212 196 199 201 210 217 216 217 220 220 219 203 207 200 206 215 226 226 227 224 224 227 239 243 239 239 246 250 245 243 255 267 275 286 298 302 301 300 302 306 307 315 317 326 223 169 86 88 21 347 306 293 293 310 288 283 288 292 296 297 302 301 308 316 311 311 308 305 307 304 303 305 309 317 328 325
185 172 169 194 204 219 233 236 235 191 188 194 203 212 219 222 227 225 214 206 198 201 202 207 213 219 224 223 224 223 226 236 246 245 240 240 241 242 244 243 253 269 285 292 294 295 297 303 310 317 314 318 328 314 142 123 48 12 302 277 294 299 286 293 296 280 280 288 296 301 311 311 306 304 302 299 303 308 307 309 317 319 330 338 344
167 160 137 184 222 231 239 224 200 196 199 208 208 218 221 227 230 224 208 197 196 200 201 207 212 215 218 224 225 232 236 245 248 241 240 234 232 234 242 237 240 260 270 284 289 294 298 303 310 313 320 327 341 328 334 127 74 341 294 280 317 310 302 278 285 292 286 291 297 299 297 294 293 294 296 293 305 318 318 317 318 327 342 357 352
148 162 170 213 231 244 242 243 231 218 213 209 214 217 226 229 228 215 204 203 201 199 202 203 209 215 220 224 226 221 220 233 246 244 235 229 233 233 239 230 238 247 252 265 280 292 299 304 309 317 325 330 331 336 345 348 343 338 323 332 310 295 289 291 279 269 272 277 278 281 281 279 286 296 306 322 333 320 316 318 330 344 1 1 5
157 132 147 186 235 254 259 262 260 230 226 226 221 227 232 233 220 202 201 202 201 199 194 195 209 217 221 226 223 228 233 237 238 237 228 225 228 237 237 240 246 254 265 275 289 293 299 308 316 318 324 331 325 356 5 349 340 333 330 329 323 319 316 310 311 304 299 300 309 303 287 282 275 280 286 293 311 332 324 337 343 349 353 3 5
112 127 151 193 242 286 312 319 315 307 261 272 264 241 229 225 220 220 212 185 197 192 199 204 213 222 229 221 222 211 224 260 257 238 233 229 233 225 230 226 236 259 256 273 286 303 307 310 315 320 330 330 337 3 8 349 335 328 321 319 324 325 333 333 314 322 324 312 304 286 275 268 266 315 341 8 10 351 347 354 353 347 356 354 1
110 96 89 70 40 10 357 341 330 353 313 287 277 272 261 220 229 232 204 189 197 200 209 223 221 224 228 215 236 229 233 223 235 231 94 47 23 353 7 75 39 18 2 322 302 297 317 326 319 357 343 340 351 354 350 338 314 305 297 304 328 345 337 315 308 314 309 301 296 317 353 341 357 358 352 360 6 6 0 4 3 2 358 3 2
98 99 83 82 68 44 3 351 333 325 285 272 262 259 265 255 224 201 187 206 207 212 213 222 226 232 235 222 223 240 238 239 240 233 120 86 60 42 27 64 96 64 50 39 37 38 17 341 331 20 31 359 348 336 328 316 308 308 295 262 264 277 282 283 289 292 285 288 301 348 355 4 353 3 357 357 358 2 4 3 9 12 10 7 5
102 104 102 103 109 105 140 161 212 231 240 236 231 231 221 246 214 207 207 207 210 222 231 243 235 238 244 245 256 272 263 230 245 270 170 142 108 58 43 48 70 89 71 71 69 60 45 26 11 348 107 135 15 327 321 314 315 311 299 278 267 272 298 305 302 303 262 278 349 3 3 5 1 2 7 358 355 359 358 359 2 10 14 7 4